Location: Bastrop State Park
(30.1090°N, 97.2819°W)
Time: 14:17:14
(UTC-05:00)

Daily predictions for brighter satellites

Satellite Brightness Start Highest point End
(mag) Time Altitude Azimuth Time Altitude Azimuth Time Altitude Azimuth
FALCON 9 R/B 1.3 19:45:26 10° W 19:47:45 53° N 19:52:13 10° ENE
Cosmos 1814 Rocket 4.1 19:45:40 10° S 19:50:41 51° ESE 19:55:40 10° NNE
Cosmos 1898 Rocket 4.2 19:48:05 10° N 19:52:44 33° ENE 19:57:21 10° SE
YAOGAN 1 3.8 19:48:36 10° S 19:52:46 48° W 19:56:58 10° NNW
Cosmos 1943 Rocket 2.9 19:48:01 10° N 19:53:01 33° ENE 19:58:00 10° SE
FREGAT/IRIS 4.1 19:50:49 10° ESE 19:53:05 19° ENE 19:55:21 10° NNE
OAO 2 Rocket 3.5 19:49:11 10° WNW 19:54:31 83° SSW 19:59:50 10° ESE
GPS 2-04 Rocket1 2.9 19:50:52 10° WNW 19:55:09 78° NNE 19:59:28 10° ESE
Cosmos 1842 4.0 19:51:49 10° NNW 19:55:41 58° W 19:59:32 10° S
Cosmos 2084 3.4 19:51:37 10° SSW 19:55:45 54° ESE 19:59:40 10° NE
H-2A R/B 3.9 19:55:50 10° SE 19:58:42 22° ENE 20:01:36 10° NNE
Lacrosse 5 1.9 19:55:04 10° NNW 20:00:06 64° NE 20:05:07 10° SE
Cosmos 2228 3.6 19:58:24 10° SSE 20:02:23 35° E 20:06:22 10° NNE
Cosmos 2058 Rocket 3.4 19:59:47 10° SSE 20:03:51 40° E 20:07:56 10° NNE
Cosmos 1606 Rocket 3.5 20:00:21 10° S 20:04:42 80° E 20:09:03 10° N
USA 234 3.8 20:01:14 10° SSE 20:07:40 60° SW 20:14:08 10° NW
Cosmos 389 Rocket 2.8 20:06:53 10° SSW 20:10:24 71° W 20:13:54 10° N
Geosat 4.0 20:06:23 10° SE 20:11:18 60° ENE 20:16:15 10° NNW
Cosmos 1953 Rocket 3.8 20:07:21 10° N 20:11:30 44° E 20:15:37 10° SSE
COSMOS 2406 3.8 20:09:47 10° SSE 20:14:48 33° ESE 20:19:51 10° NE
Cosmos 489 Rocket 4.5 20:09:14 10° NNW 20:15:31 85° ENE 20:21:49 10° SSE
SWIFT 4.2 20:12:41 10° SW 20:15:50 20° S 20:18:52 11° SE
FengYun 1-2 T 4.5 20:11:35 10° SE 20:16:58 49° ENE 20:22:20 10° N
Cosmos 1707 2.9 20:19:22 10° N 20:23:11 50° E 20:27:00 10° SSE
FENGYUN 3A 3.7 20:18:48 10° S 20:24:09 83° WSW 20:29:32 10° NNW
Shenzhou-11 Module 4.0 20:22:25 10° W 20:25:00 25° SW 20:27:33 10° SSE
EXPRESS MD2 3.3 20:25:41 10° NW 20:28:37 82° SW 20:32:59 15° SE
Cosmos 858 Rocket 4.5 20:23:43 10° N 20:28:56 65° ENE 20:34:06 10° SSE
Meteor 2-13 Rocket 4.4 20:24:19 10° S 20:30:26 88° E 20:36:33 10° N
Cosmos 1825 Rocket 4.0 20:26:48 10° NNW 20:31:11 66° W 20:35:34 10° S
Cosmos 2369 Rocket 2.8 20:26:25 10° NNW 20:31:56 58° WSW 20:37:24 10° S
Cosmos 841 Rocket 3.4 20:26:51 10° SSW 20:31:59 85° ESE 20:37:08 10° NNE
Cosmos 1656 Rocket 4.5 20:28:38 10° N 20:33:32 30° ENE 20:35:30 24° E
Cosmos 2298 Rocket 4.0 20:30:04 10° N 20:35:22 64° ENE 20:40:37 10° SSE
Cosmos 1340 Rocket 3.0 20:32:59 10° N 20:37:03 76° W 20:41:07 10° S
Cosmos 1937 Rocket 3.4 20:33:33 10° N 20:38:50 68° ENE 20:43:49 11° SSE
HJ-1C 3.2 20:40:13 20° SSE 20:42:23 75° ENE 20:45:43 10° N
ISS -1.2 20:41:16 10° S 20:41:21 10° S 20:41:21 10° S
Cosmos 2181 Rocket 4.2 20:40:04 10° N 20:46:13 74° W 20:52:18 10° S
USA 229 DEB 3.8 20:39:00 10° NNW 20:46:15 78° ENE 20:52:12 17° SE
USA 229 3.8 20:39:06 10° NNW 20:46:21 77° ENE 20:52:13 17° SE
Centaur AC-112 4.0 20:46:06 10° SW 20:51:05 21° S 20:51:38 20° SSE
Cosmos 1356 Rocket 3.5 20:47:34 10° N 20:51:48 54° E 20:52:44 44° SE
CZ-2D R/B 3.2 20:52:15 53° E 20:52:26 53° ENE 20:56:08 10° N
Yuri Rocket 3.2 20:48:17 10° WSW 20:52:31 47° SSE 20:53:08 43° SE
Cosmos 2154 Rocket 4.3 20:46:57 10° SSE 20:52:42 42° E 20:58:30 10° NNE
Cosmos 1378 3.5 20:49:49 10° NNW 20:53:33 64° W 20:57:16 10° S
Cosmos 1544 3.1 20:57:53 59° NE 20:57:53 59° NE 21:00:57 10° N
Cosmos 2074 Rocket 4.0 20:52:35 10° S 20:58:47 80° W 21:05:02 10° N
Cosmos 540 Rocket 3.3 20:55:09 10° S 21:00:14 75° ESE 21:05:19 10° NNE
SJ-6B 3.5 20:56:43 10° S 21:00:43 55° W 21:04:39 10° NNW
NOSS 3-1 (C) 4.3 20:53:36 10° NNW 21:01:15 52° ENE 21:04:39 35° ESE
Resurs 1-3 3.8 21:01:49 50° ENE 21:01:49 50° ENE 21:05:51 10° N
Cosmos 909 Rocket 4.4 20:55:17 10° NNW 21:03:27 83° WSW 21:08:20 20° SSE
Tiangong 2 3.3 21:06:01 10° W 21:08:27 20° SW 21:08:35 20° SW
Meteor 1-24 Rocket 3.7 21:08:48 10° N 21:14:47 87° E 21:17:48 30° S
Spot 2 Rocket 3.3 21:16:01 69° E 21:16:16 70° ENE 21:21:17 10° N
Resurs 01 Rocket 1.5 21:18:05 88° NNW 21:18:05 88° NNW 21:22:29 10° NNW
GEOS 3 Rocket 4.0 21:20:09 10° NNE 21:25:29 64° NW 21:30:46 10° SW
ATLAS CENTAUR R/B 2.6 21:22:31 10° NW 21:31:41 73° NNE 21:31:41 73° NNE
Nadezhda 3 Rocket 4.0 21:26:27 10° N 21:32:04 61° NE 21:32:04 61° NE
GP-B 4.0 21:28:29 10° N 21:31:31 42° NNW 21:31:31 42° NNW
Cosmos 1943 Rocket 4.2 21:32:02 10° NW 21:36:30 25° WSW 21:41:00 10° SSW
MOS 1-B Rocket 4.2 21:42:43 47° S 21:44:38 71° WSW 21:50:31 10° NNW
Envisat 3.6 21:48:56 54° WNW 21:48:56 54° WNW 21:53:23 10° NNW
Milstar 3 Cent rocket 4.2 22:13:10 10° WSW 22:14:23 18° WSW 22:14:23 18° WSW
Centaur D AC-29 4.1 22:37:05 10° W 22:38:54 17° WSW 22:38:54 17° WSW
